Regional Weather Roundup
Issued by NWS San Angelo, TX

Home | Current Version | Previous Version | Text Only | Print | Product List | Glossary On
Versions: 1 2 3 4 5 6 7 8 9 10 11 12 13 14 15 16 17 18 19 20 21 22 23 24 25 26 27 28 29 30 31 32 33 34 35 36 37 38 39 40 41 42 43 44 45 46 47 48 49 50
000
ASUS44 KSJT 230610
RWRSJT
WEST CENTRAL TEXAS REGIONAL WEATHER ROUNDUP
NATIONAL WEATHER SERVICE SAN ANGELO TX
100 AM CDT MON OCT 23 2017

NOTE: "FAIR" INDICATES FEW OR NO CLOUDS BELOW 12,000 FEET WITH NO
SIGNIFICANT WEATHER AND/OR OBSTRUCTIONS TO VISIBILITY.

TXZ049-054-064>066-071>073-076>078-098-099-113-114-127-128-139-140-
154-155-168>170-230700
...LOCATIONS ACROSS WEST CENTRAL TEXAS...

CITY           SKY/WX    TMP DP  RH WIND       PRES   REMARKS
SAN ANGELO     CLEAR     47  36  65 SW5       30.18F
ABILENE        CLEAR     47  41  80 S7        30.17F
DYESS AFB      CLEAR     46  39  75 S3        30.16F
JUNCTION       CLEAR     48  40  73 CALM      30.21R
SWEETWATER     CLEAR     53  37  54 S8        30.19F
BROWNWOOD      NOT AVBL
COLEMAN        CLEAR     46  38  73 CALM      30.18F
SONORA         CLEAR     45  36  70 CALM      30.24F
OZONA          FAIR      43  34  70 CALM      30.22F
BRADY          NOT AVBL
$$

TEXAS PANHANDLE/OKLAHOMA PANHANDLE

CITY           SKY/WX    TMP DP  RH WIND       PRES   REMARKS
AMARILLO       CLOUDY    47  35  63 SW10      30.14S
BORGER         CLOUDY    54  34  46 SW8       30.11F
CANADIAN       CLOUDY    47  36  63 W7        30.09F
DALHART        CLOUDY    48  33  56 W7        30.13F
DUMAS          CLOUDY    50  32  49 SW10      30.11F
GUYMON         NOT AVBL
HEREFORD       PTCLDY    43  36  74 W3        30.16F
PAMPA          CLOUDY    53  33  47 SW14      30.12F
PERRYTON       CLEAR     46  35  64 S8        30.08S
$$

SOUTHERN PANHANDLE/SOUTH PLAINS/ROLLING PLAINS

CITY           SKY/WX    TMP DP  RH WIND       PRES   REMARKS
LUBBOCK        CLOUDY    55  33  43 SW9       30.16S
SNYDER         CLEAR     50  34  54 S7        30.17F
CHILDRESS      CLOUDY    51  39  63 S9        30.12F
SEMINOLE       CLEAR     49  35  57 W7        30.20F
$$

PERMIAN BASIN

CITY           SKY/WX    TMP DP  RH WIND       PRES   REMARKS
MIDLAND        CLEAR     55  35  47 S5        30.18F
ODESSA         NOT AVBL
WINK           CLEAR     48  39  71 CALM      30.17F
$$

FAR WEST/SOUTHWEST MOUNTAINS/TRANS PECOS

CITY           SKY/WX    TMP DP  RH WIND       PRES   REMARKS
ALPINE         CLEAR     51  32  48 SW10      30.32F
DRYDEN           N/A     56  40  55 W3        30.19F
EL PASO        CLEAR     60  24  25 CALM      30.25F
FORT STOCKTON  CLEAR     62  36  37 S13       30.19F
GUADALUPE PASS CLEAR     62  16  16 W24       30.31F
MARFA          CLOUDY    42  29  59 N7        30.32  WCI  38
PECOS          CLEAR     49  43  78 SW6       30.17F
$$

DALLAS/FORT WORTH METROPLEX

CITY           SKY/WX    TMP DP  RH WIND       PRES   REMARKS
DFW AIRPORT    CLEAR     52  42  69 S5        30.13F
FTW MEACHAM    CLEAR     54  48  80 CALM      30.15S
DAL-EXECUTIVE  CLEAR     51  45  79 W5        30.15S
GRAND PRAIRIE  CLEAR     55  42  63 CALM      30.17S
ADDISON        CLEAR     55  42  63 CALM      30.16F
MESQUITE       CLEAR     52  45  75 CALM      30.16S
LANCASTER      CLEAR     50  46  86 CALM      30.17S
$$

NORTH CENTRAL TEXAS

CITY           SKY/WX    TMP DP  RH WIND       PRES   REMARKS
SHRMAN/DENISON CLEAR     50  43  75 CALM      30.15F
GAINESVILLE    CLEAR     47  42  82 CALM      30.16F
BRIDGEPORT     CLEAR     46  43  87 CALM      30.17F
DENTON         CLEAR     46  44  93 CALM      30.14F
WAXAHACHIE     CLEAR     51  45  79 CALM      30.18S
GRANBURY       CLEAR     47  41  77 CALM      30.18F
$$

WESTERN NORTH TEXAS

CITY           SKY/WX    TMP DP  RH WIND       PRES   REMARKS
WICHITA FALLS  CLEAR     49  38  65 S9        30.12F
VERNON         CLEAR     53  39  58 S6        30.13F
BRECKENRIDGE   CLEAR     53  39  60 SE8       30.16F
COMANCHE       CLEAR     55  38  54 CALM      30.18F
$$

CENTRAL AND SOUTH CENTRAL TEXAS

CITY           SKY/WX    TMP DP  RH WIND       PRES   REMARKS
AUSTIN/BERGSTM CLEAR     51  51 100 W3        30.17F
WACO           CLEAR     50  45  83 MISG      30.16F HAZE
HILLSBORO      NOT AVBL
TEMPLE         CLEAR     50  46  86 NW5       30.18F
KILLEEN-GRAY   CLEAR     57  41  54 W8        30.17F
FORT HOOD      CLEAR     55  44  67 CALM      30.14F
GEORGETOWN     CLEAR     52  46  80 NW3       30.19F
LAGO VISTA     FAIR      60  44  57 N8        30.18F
SAN MARCOS     CLEAR     52  48  86 NW5       30.18F
NEW BRAUNFELS  CLEAR     56  48  74 E5        30.16S
RANDOLPH AFB   CLEAR    N/A N/A N/A CALM      30.18S
SAN ANTONIO    CLEAR     61  48  62 CALM      30.18S
STINSON        CLEAR     57  50  77 CALM      30.16S
PLEASANTON     NOT AVBL
LA GRANGE      CLEAR     56  55  96 CALM      30.15S
GIDDINGS       CLEAR     53  51  91 CALM      30.17F
$$

EAST TEXAS

CITY           SKY/WX    TMP DP  RH WIND       PRES   REMARKS
PARIS          CLEAR     49  45  86 W3        30.14R
CLARKSVILLE    NOT AVBL
TYLER          CLEAR     51  48  89 CALM      30.14S
LONGVIEW       CLEAR     50  32  50 W3        30.12F
PALESTINE      CLEAR     51  49  95 CALM      30.16F
NACOGDOCHES    CLEAR     50  49  96 CALM      30.15S
$$

TEXAS HILL COUNTRY AND EDWARDS PLATEAU

CITY           SKY/WX    TMP DP  RH WIND       PRES   REMARKS
LLANO          CLEAR     48  45  87 CALM      30.22S
HORSESHOE BAY  FAIR      48  48 100 S3        30.18F
KERRVILLE      CLEAR     51  49  92 CALM      30.20S
FREDERICKSBRG  CLEAR     49  44  84 CALM      30.20F
ROCKSPRINGS    NOT AVBL
HONDO          CLEAR     53  44  71 N6        30.18F
UVALDE         PTCLDY    56  44  63 NE3       30.20S
DEL RIO        CLEAR     57  50  77 SE3       30.17S
$$

SOUTHEAST TEXAS

CITY           SKY/WX    TMP DP  RH WIND       PRES   REMARKS
COLLEGE STN    CLEAR     59  46  62 N5        30.16S
CALDWELL       CLEAR     52  49  89 CALM      30.17F
CROCKETT         N/A     48  46  93 CALM      30.18F
BRENHAM        CLEAR     56  52  86 CALM      30.17S
HUNTSVILLE     CLEAR     54  48  80 CALM      30.15F
CONROE         CLEAR     51  51 100 CALM      30.15S
HOUSTON BUSH   CLEAR     61  52  72 NW6       30.14S
HOUSTON HOBBY  CLEAR     62  52  69 N7        30.13F
PERLAND        CLEAR     62  54  74 N5        30.15S
WHARTON        CLEAR     59  52  77 CALM      30.16S
$$

THE UPPER TEXAS COAST

CITY           SKY/WX    TMP DP  RH WIND       PRES   REMARKS
ORANGE         CLEAR     59  58  97 CALM      30.13S
PORT ARTHUR    CLEAR     59  56  89 NW6       30.11S
GALVESTON      CLEAR     70  58  65 N15       30.13S
ANGLETON       CLEAR     59  55  87 N6        30.13S
BAY CITY       CLEAR     60  57  91 N5        30.13F
$$

TEXAS COASTAL BEND, RIO GRANDE PLAINS DEEP SOUTH TEXAS

CITY           SKY/WX    TMP DP  RH WIND       PRES   REMARKS
VICTORIA       PTCLDY    58  54  86 NW5       30.16S
BEEVILLE       FAIR      60  48  63 NE3       30.16F
ROCKPORT       CLEAR     61  59  93 N3        30.14F
PORT ARANSAS   NOT AVBL
PORT LAVACA    CLEAR     59  57  91 NW3       30.15F
CORPUS CHRISTI PTCLDY    66  62  87 N6        30.15F
KINGSVILLE NAS CLEAR     60  58  92 CALM      30.15S
COTULLA        PTCLDY    64  47  53 SE7       30.17F
LAREDO         PTCLDY    66  55  67 E6        30.17F
BROWNSVILLE    LGT RAIN  76  74  93 N6        30.12S
PORT ISABEL    CLOUDY    76  69  79 N12       30.11F
HEBBRONVILLE   PTCLDY    60  54  79 CALM      30.18F
MCALLEN        MOCLDY    74  65  73 N6        30.14F
WESLACO        PTCLDY    71  65  81 NE7       30.14S
FALFURRIAS     PTCLDY    63  60  88 CALM      30.16S
EDINBURG       CLEAR     70  65  82 NE6       30.15F
$$




USA.gov is the U.S. government's official web portal to all federal, state and local government web resources and services.